Location: Staunton
(38.1490°N, 79.0720°W)
Time: 13:25:34
(UTC-04:00)

ISS - Pass Details

Date: 19 September 2018
Orbit: 403 x 408 km, 51.6° (Epoch: 26 September)

Event Time Altitude Azimuth Distance (km) Brightness Sun altitude
Exits shadow 05:01:33 12° 139° (SE) 1,340 -1.0 -23.8°
Drops below altitude 10° 05:01:52 10° 138° (SE) 1,468 -0.8 -23.7°
Sets 05:03:53 0° 136° (SE) 2,303 0.3 -23.3°
